Helicity
34 29 28 27 27 30 33 36 44 46 54 58 64 65 55 45 36 29 20 8 1 -1 -1 4 13 16 10 -3 4 43 52 37 21 12 -2 8 9 19 15 28 35 81 48 20 54 71 73
41 37 38 33 35 33 33 36 40 44 58 68 76 79 67 53 40 28 15 5 -3 -3 -1 1 9 16 1 14 42 41 44 36 21 12 8 3 30 41 24 20 44 64 62 26 46 97 91
51 49 48 46 47 45 44 46 51 66 73 77 78 78 75 71 49 38 23 10 1 -3 2 11 22 9 10 -4 49 50 44 25 30 31 21 31 45 58 90 30 69 59 30 27 93 137 103
53 57 57 57 59 58 59 56 59 72 79 85 94 85 74 61 48 28 19 4 -4 10 14 21 30 11 15 59 86 69 46 73 58 56 73 110 81 59 76 97 51 56 54 55 72 149 146
55 67 65 71 68 69 65 65 75 84 89 95 105 107 99 72 42 19 9 -5 -2 22 27 35 22 12 22 43 57 41 76 59 79 88 88 78 87 82 105 86 65 73 70 58 83 168 166
50 57 68 80 76 77 75 81 83 85 92 103 119 129 128 102 61 16 -6 3 11 32 28 29 39 46 38 28 69 82 87 106 78 91 90 90 87 103 121 127 120 66 118 67 77 85 142
46 52 60 80 83 78 79 85 85 85 92 96 112 137 148 112 60 21 -7 -6 -13 2 12 11 7 44 36 113 87 70 95 109 112 100 98 97 132 140 115 109 78 79 72 86 38 119 173
46 56 64 76 78 79 83 83 84 88 91 101 106 122 148 117 46 2 -9 15 25 24 9 21 31 66 156 117 98 100 116 114 140 110 77 173 134 77 70 75 116 134 105 102 70 100 190
66 65 74 81 82 85 85 84 85 87 91 97 101 106 142 119 19 -16 32 29 16 8 -10 5 101 114 162 132 125 102 140 143 141 114 111 144 170 148 67 73 120 105 127 106 101 84 103
64 68 79 81 84 82 80 80 86 88 90 90 94 100 112 141 15 13 42 32 10 9 -8 11 49 85 103 90 102 220 119 179 179 126 96 96 78 70 98 138 124 115 104 115 97 136 143
66 79 89 88 87 85 85 87 94 96 91 97 98 99 102 47 20 25 46 26 22 13 31 70 60 54 69 56 80 83 135 172 110 110 129 150 97 103 124 98 115 123 149 151 152 154 146
84 78 73 76 75 77 86 96 101 103 97 102 98 98 79 45 38 68 46 40 31 52 33 108 96 62 62 57 85 110 87 142 129 120 87 94 145 154 130 169 171 218 183 138 140 166 200
67 64 62 62 65 74 84 95 100 104 98 94 102 98 52 38 75 50 47 49 85 124 140 135 126 104 80 87 79 93 132 153 131 121 104 94 90 222 202 212 246 235 240 209 205 262 226
61 57 65 70 87 102 114 143 168 160 150 152 133 107 51 79 71 62 63 90 121 118 121 152 159 127 98 112 70 86 133 117 108 101 156 133 127 161 245 189 173 220 263 308 236 205 140
59 65 71 82 113 129 116 114 141 166 166 172 86 64 85 79 68 71 108 114 119 189 210 219 166 98 105 90 154 114 83 90 111 110 171 145 142 263 233 242 216 265 338 175 224 183 216
52 71 79 73 67 75 87 90 102 111 125 112 5 11 30 57 64 71 122 141 198 229 217 210 163 194 163 184 155 110 95 181 102 134 173 241 183 162 301 305 294 352 318 324 333 295 262
49 38 41 53 59 60 59 60 68 90 114 53 -25 -35 -19 -19 13 49 101 168 165 259 226 190 237 185 183 203 230 197 196 174 316 274 233 288 289 234 289 324 305 330 336 336 364 356 350
44 44 43 42 42 54 66 70 64 49 82 -16 -39 -55 -25 -2 -34 -9 48 75 82 115 159 163 179 219 178 193 145 169 196 289 258 251 346 326 374 292 266 237 204 222 225 207 281 317 422
37 29 26 31 44 57 72 84 75 55 14 -33 -52 -35 -4 -3 4 37 62 58 69 92 88 169 180 186 160 140 150 220 225 270 305 308 374 422 447 339 231 165 141 180 295 400 381 280 283
25 25 24 29 46 87 101 110 115 87 26 -23 -43 -38 -9 20 46 48 55 43 98 121 154 129 101 102 158 131 88 192 185 201 141 145 30 134 259 323 324 367 320 213 185 179 181 239 255
24 27 34 32 40 71 94 101 131 117 33 -25 -32 -16 6 15 37 49 52 73 128 138 208 105 152 216 237 130 150 98 245 79 -12 36 -82 -194 108 173 174 155 149 144 150 137 8 92 94
39 41 42 41 29 33 33 47 78 94 -28 19 -16 -6 24 24 56 73 90 217 146 182 117 95 166 216 230 163 154 135 130 95 35 66 134 120 -78 26 30 49 -75 143 310 164 203 203 168
39 38 29 22 16 18 14 16 37 61 20 -17 -18 9 8 35 71 86 181 197 148 162 130 159 170 113 128 149 196 107 72 67 96 99 113 108 111 120 21 17 172 194 374 13 50 233 84
37 46 37 35 32 9 20 35 57 63 33 -13 -12 -26 -20 44 110 166 193 201 173 165 158 115 104 126 114 85 43 54 44 42 106 118 106 99 110 85 114 139 172 254 244 229 177 275 316
25 39 52 55 58 103 44 29 28 33 21 1 -9 -9 21 31 88 182 181 152 154 163 147 104 117 82 65 61 62 52 33 84 92 7 125 47 66 98 115 126 101 83 166 144 110 129 96
34 30 38 57 69 81 83 18 10 19 20 9 8 -11 -2 23 163 146 122 140 137 140 105 111 67 43 35 70 50 52 54 167 192 141 134 91 99 55 125 130 112 172 210 69 -62 4 100
25 40 51 59 68 58 27 6 20 15 32 22 30 28 28 31 29 113 103 101 79 90 99 88 82 57 19 56 70 89 118 102 125 99 81 67 81 122 128 121 119 181 111 -35 80 54 48
45 52 53 49 39 26 20 19 30 25 40 53 50 54 41 38 63 50 61 36 18 45 59 41 61 50 43 74 92 97 100 82 83 76 52 60 67 102 86 114 114 48 -15 33 -3 19 20
45 52 44 21 13 12 11 22 16 27 41 73 62 74 89 73 72 42 -18 0 27 20 33 51 57 29 25 41 51 37 73 82 71 80 59 56 41 42 62 71 31 31 1 7 34 44 60
Wind_Speed
44 45 44 44 43 41 39 37 36 36 36 36 36 37 38 39 40 41 42 42 42 41 39 40 42 43 42 43 45 22 22 23 24 26 25 22 21 15 34 31 29 19 25 47 44 38 31
46 47 47 46 45 44 43 42 42 42 41 40 40 41 41 41 41 41 42 42 43 42 41 40 40 41 43 47 30 21 23 24 26 24 27 27 30 38 47 45 43 46 49 58 52 29 29
49 49 49 48 48 47 46 46 46 45 45 45 45 45 45 43 40 40 40 42 43 42 41 40 39 41 49 52 31 24 23 29 26 30 36 31 40 35 41 39 47 48 58 57 24 19 36
50 52 51 50 50 50 49 48 48 48 49 49 50 49 48 46 43 42 44 44 42 39 38 39 38 41 51 37 30 29 25 30 29 31 35 34 35 39 41 46 46 48 48 56 49 16 30
51 52 53 52 52 52 51 51 50 50 51 52 53 53 53 51 48 45 46 44 38 34 34 34 38 40 51 32 38 25 21 32 28 30 32 31 33 37 34 44 54 41 58 51 52 25 36
52 53 54 55 55 55 54 54 54 54 54 54 55 56 56 55 50 47 45 41 35 31 33 32 41 47 41 45 32 22 25 24 34 30 36 36 37 42 39 40 59 52 52 60 55 42 35
52 54 55 56 57 58 58 58 58 58 58 59 59 59 59 57 52 49 44 39 43 43 38 42 45 47 37 35 30 31 26 26 35 39 42 36 43 44 42 37 43 61 75 75 69 52 50
54 56 58 58 58 60 62 63 63 63 63 64 64 63 63 60 52 50 44 43 44 46 64 56 48 50 41 34 45 30 22 36 41 47 43 47 56 56 55 56 58 59 64 64 71 60 51
56 58 59 61 61 62 64 65 67 67 68 68 68 68 67 65 54 48 43 42 44 46 59 51 44 45 41 36 47 36 22 40 50 54 52 55 54 51 52 56 57 60 61 66 67 64 56
57 59 61 63 65 66 67 68 70 71 72 72 72 71 70 68 43 50 42 45 45 45 61 51 43 38 33 37 48 37 23 41 50 62 59 64 64 65 63 61 55 64 54 60 65 64 76
57 60 63 65 67 69 71 72 73 74 75 76 75 73 71 60 55 49 46 46 44 42 70 41 37 33 33 33 37 37 33 39 52 50 49 55 54 53 55 54 50 67 54 56 62 69 81
59 62 64 67 69 72 73 75 76 78 79 80 79 76 72 46 46 43 47 45 43 52 67 46 39 42 44 39 41 38 37 38 43 56 63 65 53 53 53 50 46 45 53 60 64 68 88
60 62 65 68 71 73 75 77 78 80 82 84 83 77 65 50 50 50 48 43 54 59 48 52 51 46 52 51 49 44 46 47 52 62 67 64 60 55 49 59 53 53 61 78 80 77 92
61 64 67 70 72 74 76 78 80 82 85 87 83 70 40 44 49 48 42 45 62 59 60 50 55 60 65 58 57 51 60 68 54 62 80 84 90 48 50 53 59 54 54 70 89 87 89
61 64 67 69 70 72 74 77 79 82 84 84 71 44 40 50 46 42 41 51 58 60 58 68 76 75 73 62 60 60 67 77 71 52 72 76 79 55 50 52 52 60 67 64 82 89 94
59 61 64 67 69 71 73 75 78 78 79 73 53 42 47 50 43 37 44 54 57 58 68 67 77 72 89 83 72 65 66 61 62 61 63 74 103 74 61 58 61 60 58 72 66 92 98
57 59 62 65 69 70 72 74 76 77 77 66 44 41 53 54 40 37 49 53 55 62 65 67 81 92 94 96 94 98 94 80 76 74 68 71 77 89 64 71 70 67 76 71 75 80 101
55 57 60 61 65 67 69 71 73 76 75 60 50 45 56 56 45 42 50 57 60 66 68 66 68 73 79 85 92 93 95 78 76 70 77 70 78 101 94 82 72 74 82 77 92 100 89
57 57 59 62 65 66 68 69 71 71 70 58 51 49 56 51 50 56 60 61 63 67 68 68 70 68 74 83 91 82 79 70 74 76 78 81 83 106 112 91 82 90 79 82 88 89 100
55 56 59 61 62 65 67 69 71 71 68 55 53 54 57 54 51 60 66 64 67 66 62 66 68 67 77 81 74 84 92 81 89 84 69 71 74 86 100 86 76 76 76 75 77 88 95
50 50 51 55 61 66 70 72 76 77 73 51 57 56 55 64 64 67 67 67 74 75 67 72 66 73 82 87 100 91 91 93 86 91 76 68 91 91 97 92 91 86 86 83 82 77 80
46 49 53 60 62 66 71 76 80 83 73 60 54 58 56 55 61 66 64 69 75 77 78 78 81 85 87 91 92 102 95 87 86 77 77 76 91 102 114 98 90 75 78 78 76 78 77
49 54 59 62 64 68 70 75 81 83 73 59 56 51 50 56 65 66 65 72 73 74 65 63 82 90 88 86 85 88 86 87 87 94 93 90 88 89 112 94 92 96 86 72 66 67 73
54 60 63 66 70 69 71 73 77 79 75 61 57 53 58 63 64 68 64 65 71 66 68 72 72 79 72 80 86 79 74 73 76 65 63 71 75 74 93 86 94 61 49 53 56 58 61
58 63 68 72 74 79 71 70 67 68 71 61 59 58 60 63 64 60 68 69 64 64 69 72 65 71 69 69 67 70 65 43 41 37 51 46 56 70 74 74 57 56 59 62 62 63 60
64 68 71 76 77 78 78 70 65 60 61 61 56 54 54 61 64 59 65 64 73 72 69 64 63 61 47 50 53 59 58 54 50 52 49 53 56 56 65 76 81 55 63 63 46 74 64
68 72 74 76 78 77 75 74 75 62 53 55 53 50 53 59 51 60 63 67 59 64 62 61 68 49 45 48 55 52 51 49 53 56 61 59 58 57 62 63 55 56 64 46 72 74 74
72 75 76 77 76 76 75 73 74 68 52 48 52 44 51 56 55 49 54 60 56 54 60 62 56 48 46 49 47 47 49 47 47 48 54 53 57 55 58 62 67 61 53 59 60 63 67
74 76 77 77 77 75 76 74 70 67 63 40 52 43 42 50 51 49 44 40 40 42 47 41 40 45 40 42 44 43 47 46 49 52 50 53 50 56 53 55 51 50 46 51 54 62 64
Wind_Direction
334 336 336 336 337 335 333 332 331 330 328 326 321 314 306 298 291 284 280 275 274 276 282 287 284 287 283 274 272 315 317 315 311 304 304 317 325 344 314 329 333 333 335 299 319 328 334
336 336 336 336 335 336 334 334 333 333 329 326 322 320 315 306 297 290 282 278 277 278 284 292 296 298 280 273 308 321 317 314 309 308 305 305 313 303 300 308 310 313 312 303 311 329 332
338 337 335 335 336 335 333 333 332 329 328 327 325 323 319 313 301 295 292 285 282 283 291 298 303 302 275 266 309 319 316 304 310 303 296 307 300 309 316 318 311 312 307 310 320 317 324
341 339 338 337 334 334 332 330 330 327 327 326 325 323 321 316 303 296 298 293 296 302 302 304 308 304 281 306 309 308 310 307 311 308 303 312 309 306 306 311 314 315 315 311 320 332 327
344 341 340 337 334 331 330 328 325 324 324 325 325 322 320 316 309 303 304 308 316 318 314 315 309 299 285 321 297 310 313 303 308 312 312 317 311 307 315 308 306 311 306 310 312 323 322
344 342 339 336 334 331 329 327 325 323 321 321 321 320 319 316 311 309 317 329 335 334 322 322 305 294 297 295 311 322 317 314 303 307 305 304 305 302 305 302 299 308 304 305 308 315 308
342 338 336 334 332 331 329 326 324 323 321 320 318 317 316 315 311 315 328 333 317 311 310 300 300 295 308 313 325 310 317 305 303 298 299 300 296 293 298 293 298 301 297 297 301 310 306
338 337 336 333 330 329 328 326 324 323 321 320 318 317 315 313 308 318 334 327 323 317 296 299 297 294 303 309 299 305 311 295 292 291 293 296 290 295 296 296 298 299 299 299 302 307 304
338 336 334 332 330 328 325 325 324 322 321 319 318 317 314 312 311 333 342 338 335 329 304 308 309 298 296 303 295 293 293 294 291 289 288 286 295 307 300 295 295 295 294 298 299 304 305
338 336 334 332 330 328 326 324 322 321 320 318 316 316 315 309 330 328 335 336 336 336 305 304 310 315 315 308 299 302 292 297 293 290 289 291 292 290 291 292 295 294 301 300 299 302 299
337 336 334 333 331 330 327 324 322 319 317 315 314 313 312 319 317 323 328 333 335 336 293 313 317 329 327 313 318 311 312 299 290 293 295 293 299 300 293 292 297 296 301 303 301 298 299
339 336 335 334 332 330 328 326 323 320 318 314 310 309 313 332 328 329 332 332 329 310 292 309 318 314 311 309 310 316 311 306 310 294 289 290 299 299 298 301 300 305 303 302 301 299 292
339 338 336 334 333 332 330 328 325 323 320 317 311 307 314 325 319 325 328 325 309 295 313 305 308 312 306 305 304 303 300 296 296 297 294 296 288 291 293 294 297 295 296 295 293 292 292
341 339 336 334 333 331 330 328 327 325 322 319 313 312 337 333 327 326 324 314 297 303 301 310 308 305 298 305 300 297 298 292 290 292 293 291 290 284 288 284 294 289 286 287 291 292 297
340 340 339 337 335 335 333 331 329 325 323 321 321 338 338 334 335 332 317 303 305 309 310 305 303 297 298 300 297 298 293 293 295 288 286 293 289 300 292 295 291 292 285 290 290 292 291
342 342 343 341 340 339 337 334 331 328 325 321 340 345 345 341 343 337 315 306 310 319 312 309 300 300 295 296 297 297 297 307 304 299 296 289 287 291 290 292 290 289 298 291 290 289 288
345 345 345 346 345 343 341 339 337 334 329 326 359 352 347 344 349 339 318 314 318 321 323 312 302 297 296 296 293 291 291 298 305 301 298 294 288 286 289 284 286 288 286 287 290 284 285
346 344 342 341 343 342 341 340 340 341 335 356 357 353 352 349 343 341 330 325 324 320 321 315 312 308 302 302 296 293 291 296 310 306 296 299 291 284 283 287 288 284 284 281 280 283 283
350 347 346 347 347 345 343 341 339 338 346 2 358 356 0 359 342 335 332 327 325 325 323 319 313 314 310 302 297 298 297 304 308 304 301 300 288 285 286 287 286 281 288 292 291 285 279
350 351 352 351 349 345 343 342 340 338 338 9 358 348 350 1 359 340 332 329 327 329 327 326 318 317 311 305 302 297 296 297 300 301 301 305 292 286 284 289 298 293 298 296 294 287 287
339 337 335 341 347 348 348 346 345 342 342 15 2 354 358 339 339 339 335 331 326 324 330 326 320 318 314 306 302 298 299 299 298 297 295 292 286 288 288 291 291 295 294 294 290 293 289
336 335 338 343 342 348 349 352 352 348 354 19 9 359 2 352 350 345 344 337 331 329 327 321 317 316 313 306 302 300 300 301 298 300 297 297 286 291 284 288 288 289 298 294 295 294 293
339 340 341 344 343 346 351 355 357 359 4 14 12 11 6 354 349 346 345 340 337 338 335 332 324 318 314 312 311 305 301 297 295 293 293 292 289 290 283 288 288 283 295 296 297 304 296
338 342 346 349 347 352 356 0 1 4 5 13 11 6 358 348 349 345 346 345 339 338 330 329 329 322 323 325 317 310 301 297 295 298 301 293 293 291 289 292 281 289 306 307 300 307 312
339 344 349 351 351 354 2 2 6 6 8 9 8 5 358 348 347 349 345 342 342 341 335 330 334 330 332 328 320 314 312 304 308 311 320 312 304 296 292 293 293 295 306 305 300 300 317
343 345 349 351 354 354 356 1 3 5 5 5 5 5 2 352 349 350 344 345 340 339 338 337 340 342 346 338 329 317 311 309 303 308 324 321 318 302 300 291 287 302 313 313 305 294 319
343 347 351 352 354 356 355 355 356 360 3 3 2 4 360 352 352 349 344 342 343 341 339 340 344 348 349 340 328 323 318 322 308 308 308 314 315 308 306 300 302 317 319 322 299 301 317
345 347 349 351 353 353 355 356 355 356 0 1 358 4 358 352 348 354 348 341 343 344 341 343 350 354 347 341 337 334 325 327 322 323 317 316 314 313 312 305 299 326 323 314 316 318 320
347 348 349 349 351 353 352 354 354 354 354 1 354 4 5 354 349 352 355 357 356 353 349 359 354 349 353 348 346 343 334 333 330 319 331 317 323 316 318 313 324 329 333 333 332 324 324